Tracking 18840 objects as of 18-November-2017
HD Live streaming from Space Station
objects crossing your sky now

FENGYUN 1C DEB

Track FENGYUN 1C DEB now!
10-day predictions


NORAD ID: 33710
Int'l Code: 1999-025DGX
Perigee: 848.4 km
Apogee: 931.5 km
Inclination: 99.1 °
Period: 102.6 minutes
Semi major axis: 7260 km
RCS: 0.0027 m2 (small)
Launch date: May 10, 1999
Source: People's Republic of China (PRC)
Launch site: Taiyaun Space Center, China (TSC)

Note: This is SATELLITE DEBRIS
aabbcc
Your satellite tracking list
Your tracking list is empty




NASA's NSSDC Master Catalog

Two Line Element Set (TLE):
1 33710U 99025DGX 17321.44963971 +.00000334 +00000-0 +23927-3 0  9992
2 33710 099.0708 036.5666 0057265 092.0359 268.7366 14.03179924262541
Source of the keplerian elements: AFSPC